User: anonymous   Login
Location: Godiavel Galaoual
(15.2485°N, 12.6604°W)
Time: 05:32:27
(UTC+00:00)
Language:

Cosmos 1932 - Orbit

View from above orbital plane
View from above orbital plane
View from above satellite
View from above satellite

Ground track
Ground track

The orbit data is extracted from the following two-line orbital elements,

1 18957U 88019A   20152.11592117 -.00000093  00000-0 -48244-5 0  9994
2 18957  65.0458  41.2513 0060449 261.4623  97.9583 13.79683657624517
Epoch (UTC): 31 May 2020 02:46:55
Eccentricity: 0.0060449
inclination: 65.0458°
perigee height: 920 km
apogee height: 1009 km
right ascension of ascending node: 41.2513°
argument of perigee: 261.4623°
revolutions per day: 13.79683657
mean anomaly at epoch: 97.9583°
orbit number at epoch: 62451

The dashed part of the orbit path shows where the satellite is in the earth's shadow,  

DLR